GW5237 Weather Reports


time (UTC)temp
C
wind
direction
speed
KPH
gust
KPH
rain 1hr
cm
rain 24hr
cm
rain mn
cm
humidity
%
barometer
mb
20260906132314 25 84 3.2 3.2 0.00 0.03 0.03 94 1012.1
20260906131810 25 38 4.8 4.8 0.00 0.03 0.03 95 1011.9
20260906131305 24 54 3.2 4.8 0.00 0.03 0.03 97 1012.0
20260906130801 23 57 4.8 4.8 0.00 0.03 0.03 97 1012.0
20260906130255 23 64 1.6 1.6 0.00 0.03 0.03 98 1012.0
20260906125754 23 61 6.4 9.7 0.00 0.03 0.03 98 1012.1
20260906125252 23 31 3.2 3.2 0.00 0.03 0.03 98 1011.9
20260906124752 23 97 3.2 3.2 0.00 0.03 0.03 98 1012.1
20260906124248 22 50 1.6 1.6 0.00 0.03 0.03 99 1012.1
20260906123747 22 69 0.0 0.0 0.00 0.03 0.03 99 1012.0
20260906123242 22 70 0.0 0.0 0.00 0.03 0.03 99 1012.0
20260906122742 22 67 1.6 1.6 0.00 0.03 0.03 99 1012.0
20260906122237 21 53 0.0 0.0 0.00 0.03 0.03 99 1011.8
20260906121733 21 26 3.2 4.8 0.00 0.03 0.03 99 1012.1
20260906121229 21 47 0.0 1.6 0.00 0.03 0.03 99 1011.9
20260906120725 21 34 3.2 3.2 0.00 0.03 0.03 99 1011.7
20260906120221 21 64 0.0 0.0 0.00 0.03 0.03 99 1011.9
20260906115717 21 40 0.0 0.0 0.00 0.03 0.03 99 1011.9
20260906115212 21 50 0.0 0.0 0.00 0.03 0.03 99 1011.7
20260906114711 21 63 0.0 0.0 0.00 0.03 0.03 99 1011.8
20260906114206 21 67 0.0 0.0 0.00 0.03 0.03 99 1011.7
20260906113702 21 67 0.0 1.6 0.00 0.03 0.03 99 1011.6
20260906113201 21 71 0.0 0.0 0.00 0.03 0.03 99 1011.6
20260906112700 21 71 0.0 0.0 0.00 0.03 0.03 99 1011.5
20260906112158 21 71 0.0 0.0 0.00 0.03 0.03 99 1011.6
20260906111657 21 72 0.0 0.0 0.00 0.03 0.03 99 1011.7
20260906111151 21 72 0.0 0.0 0.00 0.03 0.03 99 1011.4
20260906110646 21 76 3.2 3.2 0.00 0.03 0.03 99 1011.3
20260906110142 21 77 0.0 0.0 0.00 0.03 0.03 99 1011.3
20260906105635 21 77 0.0 0.0 0.00 0.03 0.03 99 1011.2
20260906105132 21 77 0.0 0.0 0.00 0.03 0.03 99 1011.3
20260906104631 21 77 0.0 0.0 0.00 0.03 0.03 99 1010.9
20260906104131 21 77 0.0 0.0 0.00 0.03 0.03 99 1011.0
20260906103629 21 77 0.0 0.0 0.00 0.03 0.03 99 1011.0
20260906103124 21 77 0.0 1.6 0.00 0.03 0.03 99 1010.8
20260906102620 21 53 0.0 0.0 0.00 0.03 0.03 99 1011.0
20260906102114 21 53 0.0 0.0 0.00 0.03 0.03 99 1010.9
20260906101614 21 47 0.0 0.0 0.00 0.03 0.03 99 1010.8
20260906101114 21 47 0.0 0.0 0.00 0.03 0.03 99 1010.9
20260906100610 21 47 0.0 0.0 0.00 0.03 0.03 99 1010.9
20260906100110 21 47 0.0 0.0 0.00 0.03 0.03 99 1010.7
20260906095610 21 47 0.0 0.0 0.00 0.03 0.03 99 1010.6
20260906095105 21 47 0.0 0.0 0.00 0.03 0.03 99 1010.4
20260906094604 21 47 0.0 0.0 0.00 0.03 0.03 99 1010.4
20260906094100 21 47 0.0 0.0 0.00 0.03 0.03 99 1010.3
20260906093556 21 47 0.0 0.0 0.00 0.03 0.03 99 1010.5
20260906093051 21 47 0.0 0.0 0.00 0.03 0.03 99 1010.4
20260906092546 21 47 0.0 0.0 0.00 0.03 0.03 99 1010.1
20260906092041 21 47 0.0 0.0 0.00 0.03 0.03 99 1010.1
20260906091537 21 47 0.0 0.0 0.00 0.03 0.03 99 1010.2
20260906091033 21 47 0.0 0.0 0.00 0.03 0.03 99 1010.1
20260906090534 21 47 0.0 0.0 0.00 0.03 0.03 99 1010.2
20260906090034 21 47 0.0 0.0 0.00 0.03 0.03 98 1010.2
20260906085532 21 47 0.0 0.0 0.00 0.03 0.03 98 1010.3
20260906085033 21 47 0.0 0.0 0.00 0.03 0.03 98 1010.1
20260906084533 21 47 1.6 1.6 0.00 0.03 0.03 98 1010.3
20260906084031 21 47 1.6 1.6 0.00 0.03 0.03 98 1010.2
20260906083527 21 46 1.6 3.2 0.00 0.03 0.03 98 1010.1
20260906083027 21 83 0.0 0.0 0.00 0.03 0.03 98 1010.0
20260906082522 21 84 0.0 1.6 0.00 0.03 0.03 98 1010.0
20260906082018 21 55 1.6 1.6 0.00 0.03 0.03 98 1010.3
20260906081514 21 56 0.0 0.0 0.00 0.03 0.03 98 1010.4
20260906081009 21 56 0.0 0.0 0.00 0.03 0.03 98 1010.4
20260906080506 21 142 1.6 1.6 0.00 0.03 0.03 98 1010.2
20260906080002 21 143 0.0 0.0 0.00 0.03 0.03 98 1010.2
20260906075456 21 143 0.0 0.0 0.00 0.03 0.03 98 1010.1
20260906074951 21 143 0.0 0.0 0.00 0.03 0.03 98 1010.2
20260906074450 21 143 0.0 0.0 0.00 0.03 0.03 98 1010.5
20260906073949 21 143 0.0 0.0 0.00 0.03 0.03 98 1010.0
20260906073444 21 143 0.0 0.0 0.00 0.03 0.03 98 1010.3
20260906072940 21 143 0.0 0.0 0.00 0.03 0.03 98 1010.3
20260906072435 21 143 0.0 0.0 0.00 0.03 0.03 98 1010.0
20260906071931 21 143 0.0 0.0 0.00 0.03 0.03 98 1010.0
20260906071427 21 143 0.0 0.0 0.00 0.03 0.03 98 1010.0
20260906070923 21 143 0.0 0.0 0.00 0.03 0.03 98 1010.1
20260906070418 21 143 0.0 0.0 0.00 0.03 0.03 98 1010.1
20260906065914 21 143 0.0 0.0 0.00 0.03 0.03 98 1010.1
20260906065408 21 143 0.0 0.0 0.00 0.03 0.03 98 1010.2
20260906064904 21 143 0.0 0.0 0.00 0.03 0.03 98 1010.0
20260906064400 21 143 0.0 0.0 0.00 0.03 0.03 98 1010.1
20260906063900 21 102 0.0 0.0 0.00 0.03 0.03 98 1010.0
20260906063355 21 102 0.0 0.0 0.00 0.03 0.03 98 1010.1
20260906062850 21 101 0.0 0.0 0.00 0.03 0.03 98 1010.3
20260906062349 21 102 0.0 0.0 0.00 0.03 0.03 98 1010.2
20260906061845 21 102 0.0 0.0 0.13 0.03 0.03 98 1010.5
20260906061342 21 102 0.0 0.0 0.13 0.03 0.03 98 1010.5
20260906060836 22 59 0.0 0.0 0.00 0.00 0.00 98 1010.5
20260906060335 22 57 0.0 0.0 0.00 0.00 0.00 98 1010.8
20260906055830 22 67 0.0 0.0 0.00 0.00 0.00 98 1010.8
20260906055326 22 90 1.6 1.6 0.00 0.00 0.00 98 1010.5
20260906054820 22 92 0.0 0.0 0.00 0.00 0.00 98 1010.7
20260906054315 22 88 0.0 0.0 0.00 0.00 0.00 98 1010.9
20260906053812 22 68 0.0 1.6 0.00 0.00 0.00 98 1010.9
20260906053307 22 62 0.0 0.0 0.00 0.00 0.00 98 1010.9
20260906052802 21 64 0.0 0.0 0.00 0.00 0.00 98 1010.9
20260906052258 21 47 0.0 0.0 0.00 0.00 0.00 98 1011.0
20260906051756 21 47 0.0 0.0 0.00 0.00 0.00 98 1010.8
20260906051254 21 37 0.0 0.0 0.00 0.00 0.00 98 1011.0
20260906050750 21 37 0.0 0.0 0.00 0.00 0.00 98 1011.0
20260906050246 21 37 0.0 0.0 0.00 0.00 0.00 98 1011.0
20260906045744 21 37 0.0 0.0 0.00 0.00 0.00 98 1011.2
20260906045239 21 37 0.0 0.0 0.00 0.00 0.00 98 1010.9
20260906044735 21 36 0.0 0.0 0.00 0.00 0.00 98 1010.9
20260906044230 21 47 0.0 0.0 0.00 0.00 0.00 98 1011.0
20260906043726 22 48 0.0 0.0 0.00 0.00 0.00 98 1010.8
20260906043221 21 58 0.0 0.0 0.00 0.00 0.00 98 1011.1
20260906042720 22 143 0.0 0.0 0.00 0.00 0.00 98 1010.8
20260906042220 21 129 0.0 0.0 0.00 0.00 0.00 98 1010.5
20260906041715 21 128 0.0 0.0 0.00 0.00 0.00 97 1010.8
20260906041210 22 128 0.0 0.0 0.00 0.00 0.00 97 1010.6
20260906040706 22 128 0.0 0.0 0.00 0.00 0.00 97 1010.7
20260906040201 22 129 0.0 0.0 0.00 0.00 0.00 97 1010.6
20260906035651 22 129 0.0 0.0 0.00 0.74 0.74 97 1010.5
20260906035147 22 128 0.0 0.0 0.00 0.74 0.74 97 1010.7
20260906034641 22 82 0.0 0.0 0.00 0.74 0.74 97 1010.6
20260906034135 22 84 0.0 0.0 0.00 0.74 0.74 97 1010.7
20260906033631 22 40 1.6 3.2 0.00 0.74 0.74 97 1010.9
20260906033126 22 42 1.6 1.6 0.00 0.74 0.74 97 1011.1
20260906032623 22 28 3.2 3.2 0.00 0.74 0.74 97 1010.9
20260906032123 22 345 3.2 3.2 0.00 0.74 0.74 97 1010.9
20260906031618 22 333 4.8 4.8 0.00 0.74 0.74 97 1011.1
20260906031113 22 328 4.8 4.8 0.00 0.74 0.74 97 1011.2
20260906030612 22 327 4.8 4.8 0.00 0.74 0.74 97 1011.1
20260906030107 22 57 0.0 0.0 0.00 0.74 0.74 97 1011.6
20260906025607 22 27 3.2 3.2 0.00 0.74 0.74 97 1011.5
20260906025105 22 21 4.8 6.4 0.00 0.74 0.74 97 1011.5
20260906024600 22 42 1.6 1.6 0.00 0.74 0.74 97 1011.6
20260906024055 22 36 0.0 1.6 0.00 0.74 0.74 97 1011.3
20260906023551 22 48 0.0 0.0 0.00 0.74 0.74 97 1011.6
20260906023046 22 143 0.0 0.0 0.00 0.74 0.74 97 1011.5
20260906022541 22 49 0.0 1.6 0.00 0.74 0.74 97 1011.0
20260906022037 22 195 3.2 3.2 0.00 0.74 0.74 97 1011.4
20260906021532 22 20 3.2 3.2 0.00 0.74 0.74 97 1011.5
20260906021031 22 30 1.6 1.6 0.00 0.74 0.74 97 1011.4
20260906020530 22 33 1.6 3.2 0.00 0.74 0.74 97 1011.3
20260906020025 22 64 0.0 0.0 0.00 0.74 0.74 97 1011.4
20260906015524 22 270 3.2 4.8 0.00 0.74 0.74 97 1011.4
20260906015023 22 156 1.6 1.6 0.00 0.74 0.74 97 1011.3
20260906014518 22 167 1.6 3.2 0.00 0.74 0.74 97 1011.3
20260906014014 22 225 4.8 4.8 0.00 0.74 0.74 97 1011.6
20260906013509 22 161 3.2 3.2 0.00 0.74 0.74 97 1011.3
20260906013005 22 154 1.6 3.2 0.00 0.74 0.74 97 1011.4
20260906012500 22 220 6.4 6.4 0.00 0.74 0.74 97 1011.0
20260906011959 22 225 3.2 3.2 0.00 0.74 0.74 96 1010.9
20260906011455 22 181 1.6 3.2 0.00 0.74 0.74 96 1010.8
20260906010950 22 271 4.8 6.4 0.00 0.74 0.74 96 1010.8
20260906010445 22 189 4.8 4.8 0.00 0.74 0.74 96 1010.5
20260906005942 22 220 3.2 6.4 0.00 0.74 0.74 96 1010.3
20260906005441 22 190 4.8 4.8 0.00 0.74 0.74 96 1010.1
20260906004939 22 227 4.8 4.8 0.00 0.74 0.74 96 1009.9
20260906004434 22 10 3.2 3.2 0.00 0.74 0.74 96 1009.8
20260906003930 22 158 1.6 1.6 0.00 0.74 0.74 96 1009.6
20260906003430 22 358 1.6 1.6 0.30 0.74 0.74 96 1009.8
20260906002925 22 104 0.0 0.0 1.07 0.74 0.74 96 1009.9
20260906002425 22 171 3.2 3.2 0.79 0.69 0.69 96 1009.8
20260906001920 22 159 1.6 1.6 0.00 0.56 0.56 96 1009.9
20260906001416 22 142 1.6 3.2 0.13 0.56 0.56 95 1010.0
20260906000911 22 241 1.6 3.2 0.13 0.56 0.56 95 1010.3
20260906000406 22 288 3.2 3.2 0.18 0.53 0.53 95 1010.3
20260905235901 22 161 0.0 1.6 0.36 0.53 0.53 95 1010.0
20260905235355 22 198 4.8 4.8 0.18 0.51 0.51 95 1010.1
20260905234850 22 162 3.2 4.8 0.13 0.48 0.48 95 1010.1
20260905234345 22 125 1.6 1.6 0.13 0.48 0.48 95 1010.1
20260905233840 23 103 0.0 1.6 0.00 0.46 0.46 94 1010.0
20260905233335 23 90 1.6 1.6 0.00 0.46 0.46 94 1009.4
20260905232834 23 51 0.0 0.0 0.00 0.46 0.46 94 1009.1
20260905232331 23 65 0.0 0.0 0.00 0.46 0.46 95 1009.3
20260905231826 23 105 1.6 3.2 0.00 0.46 0.46 94 1008.6
20260905231321 23 137 3.2 4.8 0.18 0.46 0.46 94 1008.7
20260905230818 23 128 3.2 3.2 0.18 0.46 0.46 94 1009.0
20260905230315 23 117 0.0 1.6 0.00 0.43 0.43 93 1008.9
20260905225815 23 125 3.2 3.2 0.00 0.43 0.43 92 1009.1
20260905225310 23 253 3.2 3.2 0.89 0.43 0.43 91 1009.8
20260905224810 23 181 3.2 3.2 1.68 0.43 0.43 91 1010.3
20260905224305 23 158 3.2 3.2 0.89 0.28 0.28 90 1011.2
20260905223800 24 201 14.5 16.1 0.89 0.15 0.15 88 1011.5
20260905223258 25 64 3.2 3.2 0.79 0.13 0.13 85 1009.0
20260905222753 26 79 8.0 11.3 0.18 0.03 0.03 78 1008.7
20260905222252 27 104 4.8 9.7 0.00 0.00 0.00 75 1009.3
20260905221748 28 90 11.3 22.5 0.00 0.00 0.00 73 1009.2
20260905221244 29 28 11.3 25.7 0.00 0.00 0.00 72 1009.6
20260905220740 31 19 8.0 12.9 0.00 0.00 0.00 69 1009.0
20260905220236 32 331 8.0 12.9 0.00 0.00 0.00 67 1008.6
20260905215735 32 42 3.2 3.2 0.00 0.00 0.00 66 1008.6
20260905215231 33 72 0.0 0.0 0.00 0.00 0.00 64 1008.5
20260905214721 33 46 3.2 3.2 0.00 0.00 0.00 61 1008.5
20260905214216 33 49 0.0 0.0 0.00 0.00 0.00 60 1008.1
20260905213711 34 28 3.2 3.2 0.00 0.00 0.00 59 1008.0
20260905213207 34 42 0.0 1.6 0.00 0.00 0.00 58 1007.7
20260905212702 34 28 3.2 3.2 0.00 0.00 0.00 57 1007.7
20260905212201 35 332 4.8 4.8 0.00 0.00 0.00 56 1007.6
20260905211656 35 358 6.4 6.4 0.00 0.00 0.00 56 1007.7
20260905211151 35 33 3.2 4.8 0.00 0.00 0.00 55 1008.0
20260905210648 35 344 6.4 9.7 0.00 0.00 0.00 54 1007.8
20260905210143 35 21 4.8 6.4 0.00 0.00 0.00 54 1007.9
20260905205642 35 312 6.4 6.4 0.00 0.00 0.00 52 1008.0
20260905205142 35 333 3.2 4.8 0.00 0.00 0.00 52 1007.7
20260905204641 35 22 3.2 4.8 0.00 0.00 0.00 51 1007.8
20260905204136 35 325 3.2 4.8 0.00 0.00 0.00 52 1007.8
20260905203631 35 345 8.0 9.7 0.00 0.00 0.00 51 1007.6
20260905203126 36 313 6.4 6.4 0.00 0.00 0.00 50 1007.6
20260905202622 36 260 9.7 11.3 0.00 0.00 0.00 49 1007.6
20260905202117 36 319 6.4 9.7 0.00 0.00 0.00 50 1007.6
20260905201612 36 299 12.9 16.1 0.00 0.00 0.00 49 1007.6
20260905201112 36 311 8.0 12.9 0.00 0.00 0.00 50 1007.5
20260905200608 36 282 3.2 4.8 0.00 0.00 0.00 52 1007.5
20260905195556 36 197 4.8 4.8 0.00 0.00 0.00 48 1007.8
20260905195052 36 292 6.4 9.7 0.00 0.00 0.00 49 1007.9
20260905194551 36 296 8.0 9.7 0.00 0.00 0.00 51 1008.2
20260905194050 36 238 6.4 6.4 0.00 0.00 0.00 49 1008.2
20260905193546 36 271 6.4 6.4 0.00 0.00 0.00 51 1008.4
20260905193041 36 249 12.9 14.5 0.00 0.00 0.00 48 1008.2
20260905192536 36 278 8.0 9.7 0.00 0.00 0.00 50 1008.1
20260905192033 36 288 6.4 9.7 0.00 0.00 0.00 50 1008.4
20260905191530 36 284 11.3 12.9 0.00 0.00 0.00 48 1008.6
20260905191029 36 349 4.8 4.8 0.00 0.00 0.00 47 1008.7
20260905190527 37 304 4.8 4.8 0.00 0.00 0.00 51 1008.8
20260905190022 36 186 8.0 9.7 0.00 0.00 0.00 51 1008.8
20260905185521 36 312 3.2 4.8 0.00 0.00 0.00 51 1008.9
20260905185020 36 45 3.2 3.2 0.00 0.00 0.00 54 1008.9
20260905184515 36 0 4.8 6.4 0.00 0.00 0.00 54 1009.0
20260905184014 36 221 6.4 6.4 0.00 0.00 0.00 55 1009.2
20260905183514 36 272 4.8 6.4 0.00 0.00 0.00 53 1009.2
20260905183009 36 40 4.8 4.8 0.00 0.00 0.00 55 1009.2
20260905182508 36 267 4.8 4.8 0.00 0.00 0.00 54 1009.2
20260905182003 35 263 6.4 9.7 0.00 0.00 0.00 53 1009.4
20260905181458 35 212 3.2 4.8 0.00 0.00 0.00 57 1009.5
20260905180957 35 1 3.2 4.8 0.00 0.00 0.00 58 1009.7
20260905180452 36 358 8.0 9.7 0.00 0.00 0.00 58 1009.8
20260905175947 36 233 3.2 4.8 0.00 0.00 0.00 56 1009.8
20260905175446 35 300 4.8 4.8 0.00 0.00 0.00 59 1010.0
20260905174942 35 223 3.2 4.8 0.00 0.00 0.00 57 1010.1
20260905174437 35 96 3.2 4.8 0.00 0.00 0.00 58 1009.9
20260905173933 35 281 11.3 16.1 0.00 0.00 0.00 58 1009.9
20260905173429 35 286 4.8 6.4 0.00 0.00 0.00 59 1010.0
20260905172925 35 300 6.4 6.4 0.00 0.00 0.00 61 1010.1
20260905172422 35 274 9.7 11.3 0.00 0.00 0.00 58 1010.2
20260905171918 35 314 4.8 4.8 0.00 0.00 0.00 61 1010.2
20260905171415 34 303 4.8 6.4 0.00 0.00 0.00 62 1010.3
20260905170911 34 288 8.0 9.7 0.00 0.00 0.00 62 1010.5
20260905170407 35 310 8.0 9.7 0.00 0.00 0.00 60 1010.5
20260905165901 34 39 6.4 6.4 0.00 0.00 0.00 61 1010.5
20260905165356 34 6 3.2 4.8 0.00 0.00 0.00 62 1010.6
20260905164856 34 323 8.0 14.5 0.00 0.00 0.00 63 1010.7
20260905164350 34 56 1.6 1.6 0.00 0.00 0.00 66 1010.8
20260905163846 34 3 3.2 4.8 0.00 0.00 0.00 64 1010.9
20260905163342 33 289 6.4 9.7 0.00 0.00 0.00 64 1011.2
20260905162838 33 307 6.4 6.4 0.00 0.00 0.00 65 1011.1
20260905162338 33 312 4.8 4.8 0.00 0.00 0.00 65 1011.1
20260905161832 33 343 4.8 6.4 0.00 0.00 0.00 66 1011.2
20260905161332 33 49 3.2 3.2 0.00 0.00 0.00 66 1011.4
20260905160830 33 2 6.4 6.4 0.00 0.00 0.00 67 1011.3
20260905160325 33 305 6.4 6.4 0.00 0.00 0.00 66 1011.5
20260905155819 33 327 9.7 12.9 0.00 0.00 0.00 68 1011.6
20260905155318 33 284 9.7 14.5 0.00 0.00 0.00 66 1011.5
20260905154813 33 310 11.3 12.9 0.00 0.00 0.00 67 1011.6
20260905154308 32 7 1.6 3.2 0.00 0.00 0.00 69 1011.8
20260905153803 32 297 6.4 6.4 0.00 0.00 0.00 68 1011.6
20260905153300 32 324 12.9 16.1 0.00 0.00 0.00 68 1011.7
20260905152754 32 241 6.4 6.4 0.00 0.00 0.00 69 1011.8
20260905152248 32 285 6.4 9.7 0.00 0.00 0.00 68 1011.6
20260905151748 32 327 12.9 16.1 0.00 0.00 0.00 68 1011.7
20260905151244 32 313 14.5 16.1 0.00 0.00 0.00 69 1011.6
20260905150743 31 349 4.8 9.7 0.00 0.00 0.00 70 1011.6
20260905150238 32 326 11.3 14.5 0.00 0.00 0.00 70 1011.6
20260905145735 31 325 14.5 17.7 0.00 0.00 0.00 70 1011.8
20260905145230 31 329 11.3 14.5 0.00 0.00 0.00 71 1011.7
20260905144728 31 251 8.0 11.3 0.00 0.00 0.00 72 1012.0
20260905144224 31 328 11.3 12.9 0.00 0.00 0.00 72 1011.8
20260905143718 31 259 14.5 16.1 0.00 0.00 0.00 72 1011.8
20260905143218 31 36 6.4 9.7 0.00 0.00 0.00 73 1011.7
20260905142716 31 46 4.8 6.4 0.00 0.00 0.00 74 1011.7
20260905142211 31 214 8.0 12.9 0.00 0.00 0.00 73 1011.7
20260905141706 31 290 6.4 9.7 0.00 0.00 0.00 75 1011.6
20260905141203 31 260 9.7 14.5 0.00 0.00 0.00 75 1011.6
20260905140657 30 195 8.0 11.3 0.00 0.00 0.00 76 1011.7
20260905140156 30 308 9.7 11.3 0.00 0.00 0.00 77 1011.9
20260905135651 30 246 9.7 12.9 0.00 0.00 0.00 76 1011.9
20260905135147 30 240 3.2 4.8 0.00 0.00 0.00 78 1011.8
20260905134641 29 319 9.7 12.9 0.00 0.00 0.00 79 1011.8
20260905134140 30 283 11.3 12.9 0.00 0.00 0.00 78 1011.8
20260905133636 29 243 6.4 6.4 0.00 0.00 0.00 79 1012.0
20260905133135 29 267 9.7 12.9 0.00 0.00 0.00 80 1012.0
20260905132635 29 236 4.8 4.8 0.00 0.00 0.00 80 1012.0